IRIDIUM 35 [-] (24966 NORAD) Tracking and Keplerian Element Data

This shows tracking and keplerian element data for the satellite.

Feedback or suggestion? Click here.




ElementValue
Catalog24966
NameIRIDIUM 35 [-]
Epoch Orbit11274
Epoch Day360.46793987
Epoch Year2018
RAAN83.971
Inclination86.3775
Eccentricity0.0033945
Argument of Perigee287.679
Mean Anonmoly72.2579
Mean Motion16.53887081
Decay Rate0.8872188
L11 24966U 97056B 18360.46793987 .88721880 -13700-5 43046-3 0 9994
L22 24966 86.3775 83.9710 0033945 287.6790 72.2579 16.53887081112740



Live tracking and technical data element details for IRIDIUM 35 [-] (NORAD 24966). IRIDIUM 35 [-] can be tracked NOW for your location showing map with azimuth and elevation plus other details from your city location.







IsCatalogInMostPopularTable: catalog: 24966, numindb: 501
Update: records affected: 1



GetName: 24966 IRIDIUM 35 [-]

Hit Count: updated at: Thu, 22 May 2025 04:35:42 GMT